Regional Weather Roundup
Issued by NWS Bismarck, ND

Home | Current Version | Previous Version | Text Only | Print | Product List | Glossary On
Versions: 1 2 3 4 5 6 7 8 9 10 11 12 13 14 15 16 17 18 19 20 21 22 23 24 25 26 27 28 29 30 31 32 33 34 35 36 37 38 39 40 41 42 43 44 45 46 47 48 49 50
000
ASUS43 KBIS 192210
RWRBIS

NWR BROADCAST TEXT
NATIONAL WEATHER SERVICE BISMARCK ND
500 PM CDT SAT AUG 19 2017

NOTE: "FAIR" INDICATES FEW OR NO CLOUDS BELOW 12,000 FEET WITH NO
SIGNIFICANT WEATHER AND/OR OBSTRUCTIONS TO VISIBILITY.


CITY           SKY/WX    TMP DP  RH WIND       PRES   REMARKS
WILLISTON      SUNNY     84  49  29 NW23G32   29.79S
MINOT          SUNNY     90  45  21 W20G25    29.67S
MINOT AFB      SUNNY     90  49  23 W21       29.65S
BISMARCK       CLOUDY    84  63  49 SW6       29.74S
DICKINSON      SUNNY     85  41  21 NW21G28   29.80R
GARRISON         N/A     87  50  27 NW18G26   29.72S
HETTINGER ARPT CLOUDY    83  46  27 NW13      29.85R
JAMESTOWN      MOSUNNY   78  62  57 S16       29.75F
CARRINGTON     FAIR      82  64  54 S16G29    29.74S
HAZEN          FAIR      86  50  28 NW9G17    29.74F
LINTON           N/A     82  63  51 S13       29.77S
MANDAN         FAIR      82  63  51 SW6       29.76S
RUGBY          FAIR      84  63  48 SW15G21   29.67S
STANLEY        FAIR      82  52  34 NW17G26   29.77S
TIOGA          FAIR      81  50  34 NW21G26   29.79R
WATFORD CITY   FAIR      82  52  34 NW17G28   29.79R
$$

CITY           SKY/WX    TMP DP  RH WIND       PRES   REMARKS
GRAND FORKS    MOSUNNY   86  60  41 S21G28    29.72F
GRAND FORKS AF SUNNY     83  58  41 S17       29.72F
DEVILS LAKE    MOSUNNY   82  62  50 S16       29.71S
FARGO          SUNNY     81  61  50 S15G22    29.78F
CANDO          FAIR      82  61  47 S16       29.70F
CAVALIER       FAIR      84  61  45 S18       29.67F
GRAFTON        FAIR      84  59  42 S20       29.72F
GWINNER        CLEAR     81  63  54 S12       29.78F
LANGDON        FAIR      84  61  45 S21G28    29.71S
ROLLA          FAIR      82  61  47 SW20      29.69S
WALHALLA       FAIR      86  82  89 S16G23    29.66F HX 105
$$

CITY           SKY/WX    TMP DP  RH WIND       PRES   REMARKS
ABERDEEN       SUNNY     82  62  50 S15       29.79F
MOBRIDGE       SUNNY     88  66  48 S12       29.73F HX  90
BUFFALO          N/A     88  38  17 NW18      29.82S
RAPID CITY     SUNNY     94  42  16 NW8       29.85S HX  90
GLASGOW        PTSUNNY   80  38  22 NW16G25   29.90R
SIDNEY         SUNNY     85  48  27 NW20      29.82S
WOLF POINT     SUNNY     84  40  21 NW17G25   29.86S
GLENDIVE       PTSUNNY   83  44  25 NW22G31   29.86R
MILES CITY     MOSUNNY   86  36  16 N13G26    29.89S
BAKER          MOSUNNY   84  37  18 NW21G29   29.89R
$$

CITY           SKY/WX    TMP DP  RH WIND       PRES   REMARKS
BILLINGS       CLOUDY    84  29  13 E7        29.93F
GREAT FALLS    MOSUNNY   76  38  25 VRB6      29.97F
REGINA         PTSUNNY   75  41  29 NW23G32   29.81R
ESTEVAN        PTSUNNY   81  50  34 NW24G32   29.76R
$$





USA.gov is the U.S. government's official web portal to all federal, state and local government web resources and services.